Home   Weather   Nancy   Past weeks

Flag for France Past Weather in Nancy, Lorraine, France — Yesterday and Last 2 Weeks

Now
63 °F

Passing clouds.


Feels Like: 63 °F
Forecast: 58 / 66 °F
Wind: 14 mph from South

Location: Nancy / Ochey

Current Time: Jun 28, 2017 at 5:38:57 am

Latest Report: Jun 28, 2017 at 5:00 am


Visibility: N/A

Pressure: 29.56 "Hg

Humidity: 94%

Dew Point: 61 °F

Location of NancyLocation

Past Weather in Nancy — Graph

°F

Nancy Temperature Yesterday

Maximum temperature yesterday: 81 °F (at 3:30 pm)
Minimum temperature yesterday: 64 °F (at 3:00 am)
Average temperature yesterday: 71 °F

High & Low Weather Summary for the Past Weeks

 TemperatureHumidityPressure
High99 °F (Jun 22, 5:00 pm)100% (Jun 28, 1:00 am)30.36 "Hg (Jun 28, 1:00 am)
Low48 °F (Jun 13, 5:30 am)20% (Jun 20, 5:00 pm)29.56 "Hg (Jun 28, 3:30 am)
Average72 °F58%30.05 "Hg
* Reported Jun 13 4:30 am — Jun 28 4:00 am, Nancy. Weather by CustomWeather, © 2017

Note: Actual official high and low records may vary slightly from our data, if they occured in-between our weather recording intervals... More about our weather records

Advertising

Nancy Weather History for the Previous 24 Hours

Scroll right to see more
 ConditionsComfort  
Time TempWeatherWind HumidityBarometerVisibility
4:00 am
Wed, Jun 28
61 °FMostly cloudy.6 mph100%29.59 "HgN/A
3:30 am61 °FPassing clouds.2 mph94%29.56 "HgN/A
3:00 am61 °FPassing clouds.5 mph100%29.59 "HgN/A
2:30 am61 °FPassing clouds.7 mph94%29.59 "HgN/A
2:00 am61 °FCool.6 mph100%29.59 "HgN/A
1:30 am61 °FCool.3 mph100%29.59 "HgN/A
1:00 am61 °FLight rain. Overcast.3 mph100%29.62 "HgN/A
12:30 am61 °FPartly cloudy.13 mph94%29.59 "HgN/A
12:00 am61 °FHeavy rain. Fog.20 mph94%29.65 "Hg3 mi
11:30 pm
Tue, Jun 27
68 °FStrong thunderstorms. Overcast.6 mph88%29.62 "HgN/A
11:00 pm68 °FMild.3 mph83%29.62 "HgN/A
10:30 pm68 °FClear.5 mph88%29.62 "Hg10 mi
10:00 pm70 °FClear.No wind83%29.62 "Hg10 mi
9:30 pm70 °FSunny.3 mph78%29.62 "Hg10 mi
9:00 pm70 °FPassing clouds.3 mph83%29.62 "HgN/A
8:30 pm70 °FSunny.2 mph83%29.62 "Hg10 mi
8:00 pm70 °FSunny.5 mph83%29.62 "Hg10 mi
7:30 pm70 °FClear.6 mph83%29.62 "HgN/A
7:00 pm70 °FMild.7 mph83%29.65 "HgN/A
6:30 pm68 °FLight rain. Cloudy.10 mph88%29.65 "HgN/A
6:00 pm79 °FPartly sunny.13 mph51%29.65 "HgN/A
5:30 pm81 °FWarm.9 mph48%29.68 "HgN/A
5:00 pm81 °FSunny.9 mph48%29.68 "Hg10 mi
4:30 pm79 °FOvercast.10 mph54%29.68 "HgN/A
4:00 pm77 °FLight rain. Partly sunny.9 mph61%29.71 "HgN/A
3:30 pm81 °FWarm.10 mph51%29.71 "HgN/A
3:00 pm77 °FPassing clouds.5 mph61%29.71 "HgN/A
2:00 pm77 °FMostly cloudy.12 mph61%29.74 "HgN/A
1:30 pm79 °FPartly sunny.13 mph51%29.74 "HgN/A
1:00 pm79 °FPartly sunny.12 mph54%29.74 "HgN/A
12:30 pm79 °FOvercast.10 mph51%29.74 "HgN/A
12:00 pm77 °FPartly sunny.7 mph61%29.77 "HgN/A
11:30 am77 °FPartly sunny.8 mph57%29.77 "HgN/A
11:00 am73 °FCloudy.7 mph69%29.77 "HgN/A
10:30 am73 °FPartly sunny.7 mph69%29.77 "HgN/A
10:00 am72 °FScattered clouds.8 mph73%29.80 "HgN/A
9:30 am68 °FPartly sunny.7 mph83%29.80 "HgN/A
9:00 am70 °FPassing clouds.5 mph78%29.80 "HgN/A
8:30 am68 °FPassing clouds.5 mph83%29.80 "HgN/A
8:00 am64 °FSunny.5 mph94%29.80 "Hg10 mi
7:30 am64 °FSunny.3 mph94%29.80 "Hg10 mi
7:00 am64 °FSunny.5 mph94%29.80 "Hg10 mi
6:30 am64 °FSunny.5 mph94%29.80 "Hg10 mi
6:00 am64 °FMild.6 mph94%29.80 "HgN/A
5:30 am64 °FLight rain. Clear.6 mph94%29.80 "HgN/A
5:00 am64 °FClear.5 mph94%29.83 "Hg10 mi
Weather by CustomWeather, © 2017

See weather overviewHow to use our weather pages